Charlevoix, MI

2:33 PM EDT on March 23, 2017 (GMT -0400)
Charlevoix Municipal

Weather History for KCVX - May, 2013

Change the Weather History Date:

Saturday, May 18, 2013

  Actual Average Record
Temperature  
Mean Temperature 57 °F -  
Max Temperature 66 °F 65 °F 79 °F (2012)
Min Temperature 48 °F 48 °F 32 °F (2016)
Degree Days  
Heating Degree Days 8    
Growing Degree Days 7 (Base 50)    
Moisture  
Dew Point 45 °F    
Average Humidity 66    
Maximum Humidity 88    
Minimum Humidity 45    
Precipitation  
Precipitation 0.00 in - - ()
Sea Level Pressure  
Sea Level Pressure 30.15 in    
Wind  
Wind Speed 5 mph (ESE)    
Max Wind Speed 14 mph    
Max Gust Speed -    
Visibility 10 miles    
Events Rain    
Averages and records for this station are not official NWS values.
T = Trace of Precipitation, MM = Missing Value Source: NWS Daily Summary

Daily Weather History Graph

Daily Weather History Graph

Search for Another Location

Airport or City:

Trip Planner

Search our weather history database for the weather conditions in past years. The results will help you decide how hot, cold, wet, or windy it might be!

Date:

Astronomy

May. 18, 2013 Rise Set
Actual Time 6:07 AM EDT 9:08 PM EDT
Civil Twilight 5:32 AM EDT 9:43 PM EDT
Nautical Twilight 4:48 AM EDT 10:28 PM EDT
Astronomical Twilight 3:54 AM EDT 11:22 PM EDT
Moon 1:51 PM EDT (5/18) 2:19 AM EDT (5/18)
Length of Visible Light 16h 10m
Length of Day
15h 00m
First Quarter, 55% of the Moon is Illuminated
May 18
First Quarter
May 25
Full
May 31
Last Quarter
Jun 8
New
Jun 16
First Quarter

Hourly Weather History & Observations

Time (EDT) Temp. Dew Point Humidity Pressure Visibility Wind Dir Wind Speed Gust Speed Precip Events Conditions
12:15 AM 52.7 °F 46.4 °F 79% 30.21 in 10.0 mi Calm Calm - N/A   Overcast
12:34 AM 51.6 °F 46.0 °F 81% 30.21 in 10.0 mi Calm Calm - N/A   Scattered Clouds
12:54 AM 50.7 °F 44.6 °F 80% 30.20 in 10.0 mi Calm Calm - N/A   Clear
1:15 AM 48.9 °F 45.5 °F 88% 30.20 in 10.0 mi Calm Calm - N/A   Clear
1:34 AM 49.1 °F 45.1 °F 86% 30.19 in 10.0 mi Calm Calm - N/A   Clear
1:54 AM 48.4 °F 44.6 °F 87% 30.19 in 10.0 mi ESE 3.5 mph - N/A   Clear
2:15 AM 49.8 °F 43.3 °F 78% 30.19 in 10.0 mi ESE 4.6 mph - N/A   Clear
2:34 AM 50.0 °F 42.8 °F 76% 30.19 in 10.0 mi ESE 3.5 mph - N/A   Scattered Clouds
2:54 AM 49.3 °F 42.8 °F 78% 30.18 in 10.0 mi ESE 3.5 mph - N/A   Scattered Clouds
3:14 AM 50.5 °F 41.9 °F 72% 30.18 in 10.0 mi ESE 5.8 mph - N/A   Mostly Cloudy
3:34 AM 50.2 °F 41.9 °F 73% 30.19 in 10.0 mi Calm Calm - N/A   Mostly Cloudy
3:55 AM 51.8 °F 41.5 °F 68% 30.19 in 10.0 mi Calm Calm - N/A   Overcast
4:14 AM 51.1 °F 42.3 °F 72% 30.19 in 10.0 mi East 3.5 mph - N/A   Overcast
4:34 AM 51.4 °F 42.4 °F 71% 30.20 in 10.0 mi Calm Calm - N/A   Overcast
4:54 AM 50.9 °F 43.2 °F 75% 30.19 in 10.0 mi East 3.5 mph - N/A   Overcast
5:14 AM 50.9 °F 42.8 °F 74% 30.19 in 10.0 mi East 3.5 mph - N/A   Overcast
5:35 AM 51.1 °F 42.8 °F 73% 30.19 in 10.0 mi ESE 4.6 mph - N/A   Overcast
5:54 AM 51.4 °F 43.7 °F 75% 30.19 in 10.0 mi ESE 5.8 mph - N/A   Overcast
6:14 AM 52.0 °F 43.0 °F 71% 30.19 in 10.0 mi ESE 6.9 mph - N/A   Overcast
6:35 AM 52.0 °F 43.3 °F 72% 30.20 in 10.0 mi East 6.9 mph - N/A   Overcast
6:54 AM 51.6 °F 43.9 °F 75% 30.20 in 10.0 mi ESE 6.9 mph - N/A   Overcast
7:14 AM 52.7 °F 43.2 °F 70% 30.20 in 10.0 mi ESE 6.9 mph - N/A   Overcast
7:35 AM 52.3 °F 43.7 °F 72% 30.21 in 10.0 mi ESE 6.9 mph - N/A   Overcast
7:54 AM 51.8 °F 44.6 °F 76% 30.21 in 10.0 mi ESE 4.6 mph - N/A Rain Light Rain
8:14 AM 51.8 °F 45.7 °F 80% 30.21 in 10.0 mi ESE 9.2 mph - N/A Rain Light Rain
8:35 AM 51.4 °F 45.7 °F 81% 30.21 in 10.0 mi ESE 5.8 mph - N/A Rain Light Rain
8:54 AM 52.0 °F 45.3 °F 78% 30.22 in 10.0 mi ESE 5.8 mph - N/A   Overcast
9:14 AM 52.2 °F 44.8 °F 76% 30.22 in 10.0 mi East 6.9 mph - N/A   Light Drizzle
9:35 AM 52.5 °F 44.6 °F 74% 30.21 in 10.0 mi ESE 5.8 mph - N/A Rain Light Rain
9:54 AM 52.9 °F 45.5 °F 76% 30.22 in 10.0 mi ESE 5.8 mph - N/A   Light Drizzle
10:14 AM 53.6 °F 46.2 °F 76% 30.22 in 10.0 mi ESE 5.8 mph - N/A Rain Light Rain
10:35 AM 53.6 °F 46.2 °F 76% 30.21 in 10.0 mi East 6.9 mph - N/A Rain Light Rain
10:54 AM 54.0 °F 46.4 °F 76% 30.21 in 10.0 mi East 8.1 mph - N/A   Light Drizzle
11:15 AM 54.5 °F 46.8 °F 75% 30.20 in 10.0 mi ESE 5.8 mph - N/A   Overcast
11:34 AM 54.7 °F 47.3 °F 76% 30.20 in 10.0 mi ESE 5.8 mph - N/A Rain Light Rain
11:54 AM 56.3 °F 48.6 °F 75% 30.19 in 10.0 mi ESE 8.1 mph - N/A Rain Light Rain
12:15 PM 56.5 °F 46.9 °F 70% 30.19 in 10.0 mi ESE 9.2 mph - N/A   Overcast
12:34 PM 57.2 °F 47.3 °F 69% 30.18 in 10.0 mi East 11.5 mph - N/A   Overcast
12:54 PM 58.1 °F 46.9 °F 66% 30.18 in 10.0 mi ESE 9.2 mph - N/A   Overcast
1:15 PM 58.1 °F 46.8 °F 66% 30.17 in 10.0 mi ESE 9.2 mph - N/A   Overcast
1:34 PM 58.1 °F 46.4 °F 65% 30.17 in 10.0 mi East 9.2 mph - N/A   Overcast
1:54 PM 58.1 °F 46.6 °F 65% 30.17 in 10.0 mi ESE 9.2 mph - N/A   Overcast
2:15 PM 58.1 °F 46.6 °F 65% 30.16 in 10.0 mi ESE 9.2 mph - N/A   Overcast
2:34 PM 58.5 °F 47.3 °F 66% 30.16 in 10.0 mi ESE 9.2 mph - N/A   Overcast
3:14 PM 59.9 °F 46.9 °F 62% 30.14 in 10.0 mi ESE 10.4 mph - N/A   Overcast
3:34 PM 60.6 °F 47.1 °F 61% 30.14 in 10.0 mi ESE 10.4 mph - N/A   Overcast
3:55 PM 62.8 °F 48.0 °F 59% 30.13 in 10.0 mi East 9.2 mph - N/A   Overcast
4:14 PM 64.6 °F 48.0 °F 55% 30.12 in 10.0 mi East 10.4 mph - N/A   Overcast
4:34 PM 66.6 °F 47.5 °F 50% 30.11 in 10.0 mi East 9.2 mph - N/A   Overcast
4:55 PM 66.2 °F 45.0 °F 46% 30.10 in 10.0 mi ESE 11.5 mph - N/A   Mostly Cloudy
5:14 PM 65.8 °F 44.6 °F 46% 30.10 in 10.0 mi East 11.5 mph - N/A   Mostly Cloudy
5:35 PM 66.2 °F 44.6 °F 46% 30.09 in 10.0 mi ESE 10.4 mph - N/A   Overcast
6:14 PM 66.2 °F 44.1 °F 45% 30.08 in 10.0 mi ESE 13.8 mph - N/A   Clear
6:35 PM 65.3 °F 44.1 °F 46% 30.07 in 10.0 mi ESE 11.5 mph - N/A   Clear
6:54 PM 66.4 °F 44.8 °F 46% 30.07 in 10.0 mi ESE 11.5 mph - N/A   Clear
7:14 PM 66.0 °F 45.5 °F 48% 30.07 in 10.0 mi ESE 10.4 mph - N/A   Clear
7:35 PM 65.3 °F 45.1 °F 48% 30.07 in 10.0 mi ESE 9.2 mph - N/A   Clear
7:54 PM 65.5 °F 45.1 °F 48% 30.06 in 10.0 mi ESE 10.4 mph - N/A   Clear
8:14 PM 65.1 °F 45.0 °F 48% 30.06 in 10.0 mi East 10.4 mph - N/A   Clear
8:35 PM 64.4 °F 45.0 °F 49% 30.06 in 10.0 mi ESE 9.2 mph - N/A   Clear
8:54 PM 64.4 °F 45.3 °F 50% 30.05 in 10.0 mi ESE 10.4 mph - N/A   Clear
9:14 PM 64.0 °F 45.5 °F 51% 30.05 in 10.0 mi ESE 9.2 mph - N/A   Clear
9:34 PM 63.7 °F 45.5 °F 52% 30.05 in 10.0 mi ESE 8.1 mph - N/A   Clear
9:54 PM 63.0 °F 45.9 °F 54% 30.06 in 10.0 mi ESE 6.9 mph - N/A   Clear
10:15 PM 62.6 °F 45.9 °F 54% 30.06 in 10.0 mi ESE 6.9 mph - N/A   Clear
10:34 PM 62.1 °F 45.7 °F 55% 30.05 in 10.0 mi ESE 8.1 mph - N/A   Clear
10:54 PM 61.9 °F 45.5 °F 55% 30.05 in 10.0 mi ESE 8.1 mph - N/A   Scattered Clouds
11:15 PM 61.7 °F 45.5 °F 55% 30.05 in 10.0 mi ESE 6.9 mph - N/A   Mostly Cloudy
11:34 PM 61.0 °F 45.9 °F 58% 30.05 in 10.0 mi ESE 6.9 mph - N/A   Overcast